Volver al catálogo

LINK

ActivoCienciaVLEO
NORAD 69792·PAYLOAD·🇺🇸 United States

Lanzado Jul 3, 2026 desde Ronald Reagan Space and Missile Test Range

Loading…

Próximos Pases (próximas 24 horas)

TLE

ActualizadoSource: Space-Track

Época: Sep 14, 2026, 00:41 UTC

1 69792U 26152A   26257.02905887  .00569573  00000-0  16354-2 0  9996
2 69792  20.5882 212.0305 0009227 323.6507  36.3317 15.90507813 11474

Sigue LINK en tiempo real con AllMySat

Download on the App Store